Dewpoint
31 31 31 32 32 32 32 33 33 33 34 34 35 35 35 35 36 36 37 37 37 37 38 39 39 39 40 41 42 43 43 44 45 45 46 47 47 47 48 48 48 49 49 50 51 52 52 54 56 57 57 58 58 59 59 61 63 63 62 62 62 61 63 64 65 65 66 66 66 66 65 64 63 62 62 63 63 63 63 62 62 62 61 61 61 63 62 63 63 63 62 63 63 63 63 63 62 61 62 62 63 63 64
30 30 31 31 32 32 32 33 33 33 34 34 35 35 35 35 35 35 36 36 37 37 37 38 38 39 39 40 41 43 43 43 43 44 45 46 46 46 47 47 47 48 48 49 51 52 52 54 56 57 57 58 59 59 60 61 63 64 63 62 62 61 62 63 64 64 66 66 66 66 65 64 63 62 62 62 62 62 62 62 61 61 61 61 62 62 63 63 63 63 63 62 62 63 62 62 62 62 61 62 62 63 64
30 30 30 31 31 32 33 33 33 32 34 34 34 35 35 35 35 35 35 36 36 37 37 37 37 38 39 40 41 41 42 42 43 44 45 45 45 46 45 45 46 48 48 49 50 52 52 54 55 57 57 57 58 61 61 61 62 63 63 62 62 62 62 62 62 62 64 65 65 64 64 63 63 62 62 62 62 61 61 61 61 61 61 62 62 63 63 63 62 63 63 63 63 62 61 61 62 62 61 62 62 63 63
30 30 30 30 31 32 32 33 33 34 34 34 34 35 35 34 34 35 35 35 36 37 36 36 36 37 38 39 39 40 41 42 43 43 44 45 46 47 46 46 46 47 48 49 51 52 52 53 54 55 56 57 59 62 62 61 61 61 62 62 61 62 62 62 62 62 63 64 65 63 63 62 62 62 61 61 61 61 61 61 61 61 61 62 63 64 63 62 62 63 63 63 63 61 60 60 61 62 62 62 62 63 63
29 29 30 30 31 31 32 32 33 34 34 34 34 34 34 34 34 34 34 34 35 35 35 35 35 36 37 37 38 39 40 42 43 43 43 44 46 47 48 47 47 47 48 50 51 52 53 53 54 55 56 57 57 59 59 59 60 60 61 61 62 62 63 62 61 61 62 64 65 64 63 62 62 62 61 61 61 61 61 61 61 61 61 62 62 62 62 62 62 62 63 63 63 61 59 58 59 62 63 63 63 64 63
28 29 30 30 30 31 31 32 32 33 33 33 33 34 34 34 34 34 34 34 34 34 34 34 34 35 36 37 38 38 40 42 43 42 43 43 45 45 46 47 47 47 48 49 51 52 53 54 55 55 57 57 57 58 58 58 59 59 61 61 62 62 63 62 61 61 62 63 65 66 65 63 62 62 61 61 60 60 61 61 61 61 61 61 61 61 61 61 61 61 61 61 62 61 61 59 59 61 62 62 63 63 63
27 28 29 30 30 31 31 31 32 32 32 32 32 33 34 33 33 33 33 33 34 34 34 34 34 34 35 36 37 37 39 40 42 42 43 43 44 45 46 47 48 48 48 48 50 51 52 55 56 55 57 57 57 58 58 59 60 61 61 60 60 61 63 63 62 61 63 64 64 65 64 63 62 62 61 61 61 60 60 61 61 62 61 61 60 60 60 60 60 60 59 60 60 60 61 61 61 59 61 61 62 62 62
27 27 28 29 30 30 31 32 32 32 32 32 32 33 33 32 31 32 32 32 32 33 34 34 34 34 34 35 36 36 38 39 40 40 42 43 44 44 45 48 50 49 49 48 49 50 52 54 55 55 55 57 58 59 59 59 60 61 60 60 61 61 63 64 63 63 63 64 64 62 62 62 62 62 61 61 61 60 60 61 61 61 61 60 59 58 58 58 58 57 58 59 59 59 59 60 60 58 59 61 61 62 62
26 26 27 28 30 31 32 33 33 33 32 31 31 32 32 31 31 31 31 30 30 32 33 33 33 33 34 35 36 37 38 38 38 39 41 43 43 43 44 45 47 47 48 48 48 48 49 51 52 53 53 53 54 56 57 57 57 57 57 59 61 61 63 64 64 64 64 65 64 63 62 62 63 63 62 61 61 61 61 60 61 61 60 59 58 57 57 57 57 58 58 58 58 59 58 58 59 58 59 60 61 61 62
26 26 27 28 30 31 32 33 33 33 31 31 31 31 31 30 30 30 30 30 30 31 31 32 33 34 34 34 36 37 37 37 38 39 41 42 42 43 43 44 45 45 46 46 45 45 47 48 49 50 51 51 52 53 54 55 55 56 56 58 60 61 63 64 64 64 64 65 65 64 63 62 62 64 64 63 61 61 61 61 60 60 59 58 57 55 55 56 57 58 58 58 58 59 57 58 59 60 59 60 61 61 61
25 26 28 29 30 30 31 32 32 32 31 31 31 31 30 29 29 29 29 30 30 30 30 31 32 33 33 34 35 36 37 38 39 39 40 41 41 42 43 44 44 45 45 44 44 44 44 46 48 49 50 50 51 52 52 53 54 55 56 57 58 61 62 63 63 63 64 65 65 65 64 63 63 64 65 64 62 61 60 60 60 59 58 57 56 55 55 55 56 57 58 58 59 60 59 58 59 60 61 61 61 61 61
25 27 28 29 30 30 30 31 31 31 31 30 30 30 29 28 28 27 28 29 29 30 30 30 31 32 34 35 36 37 38 38 38 39 39 40 40 41 42 43 44 45 45 45 44 44 45 46 48 49 50 50 51 51 52 53 54 54 56 56 57 59 61 63 62 61 63 64 65 65 65 64 64 63 63 63 62 61 60 60 59 58 57 57 56 55 54 55 55 56 59 60 60 60 60 59 59 60 61 61 60 60 60
26 27 29 30 30 30 30 30 30 30 29 29 29 28 27 27 27 26 26 27 29 30 30 30 31 32 34 35 36 39 40 39 39 38 39 39 39 40 41 42 43 45 46 46 45 45 46 47 48 49 50 51 51 51 52 53 53 54 55 56 56 57 60 62 63 61 62 63 64 64 64 64 64 63 62 62 61 61 60 59 58 57 57 56 56 55 55 55 55 56 61 63 62 61 60 60 60 61 61 61 60 59 58
27 29 30 30 30 29 29 29 29 28 28 28 28 27 26 26 26 26 26 27 28 29 30 31 32 33 34 34 35 37 37 38 38 38 39 39 39 40 41 42 43 44 45 46 46 46 47 47 48 49 50 51 52 52 52 53 53 53 54 55 55 56 58 60 62 63 62 62 63 64 65 65 64 62 62 61 61 60 59 58 57 57 56 56 55 55 55 55 55 56 59 61 62 62 61 61 61 62 61 61 60 58 58
28 29 30 30 29 28 27 27 27 27 28 27 27 26 26 26 26 26 27 27 27 28 30 32 32 34 35 35 35 36 36 37 37 37 38 39 39 39 40 41 42 43 45 45 45 46 47 48 48 49 50 51 52 52 53 53 53 53 54 54 55 55 57 58 61 62 62 62 62 64 65 65 64 62 61 60 60 59 58 57 57 57 56 55 55 55 56 56 56 56 57 59 61 62 62 61 62 63 62 61 60 59 58
29 29 29 29 28 27 26 26 26 27 27 27 26 26 27 27 27 27 27 27 27 28 30 32 34 35 37 37 37 38 38 38 38 37 37 38 39 39 40 41 42 43 44 44 45 46 47 48 49 49 51 51 52 52 52 53 53 53 53 54 54 55 55 57 59 61 62 62 62 63 64 64 64 62 61 60 59 59 58 57 57 57 56 56 56 55 57 57 57 57 58 59 60 62 62 62 62 63 63 62 61 61 60
29 28 28 27 27 26 26 26 26 27 27 27 27 27 27 28 28 28 28 28 28 28 30 32 34 35 37 38 38 39 39 38 38 38 38 38 38 39 39 40 41 43 43 44 45 45 46 48 49 50 50 51 52 52 52 52 52 52 53 53 54 54 55 56 57 58 60 61 62 62 63 64 63 62 61 60 59 58 58 57 57 56 56 56 56 57 57 58 58 58 58 59 60 61 62 63 63 63 63 63 63 62 62
28 27 27 26 26 26 26 26 26 26 27 27 27 27 28 28 28 28 29 29 29 29 31 32 33 34 35 37 39 39 39 38 38 38 38 38 38 39 39 40 41 42 43 44 44 45 46 47 48 50 50 51 52 52 52 52 52 52 53 53 53 54 54 55 56 57 58 60 61 61 62 63 62 61 61 60 58 58 57 57 57 55 56 56 57 57 57 57 57 58 59 59 60 61 62 63 63 63 62 62 63 62 61
27 27 26 26 26 26 26 26 26 26 27 28 28 28 28 28 29 29 30 30 30 30 32 33 33 33 34 36 38 39 38 37 37 37 37 38 38 39 39 40 41 42 43 43 44 45 46 48 48 49 50 51 51 51 52 52 52 52 52 53 53 53 54 54 55 56 57 57 59 60 61 61 61 60 60 59 58 57 57 57 56 55 56 56 57 57 57 57 57 58 58 59 59 60 61 62 63 63 62 62 62 62 61
26 26 25 25 25 25 25 26 26 26 27 27 28 28 29 29 29 30 30 30 31 31 32 33 34 33 35 36 38 39 38 37 36 36 37 37 38 38 39 40 41 42 43 43 44 44 47 48 49 49 50 50 51 51 51 52 52 52 52 53 53 53 54 54 55 56 56 57 57 59 60 60 60 59 59 58 58 57 57 57 56 56 56 56 57 57 57 57 58 58 59 59 59 59 61 61 62 62 62 62 62 61 61
25 25 25 25 25 25 25 26 26 27 27 27 28 28 29 29 30 30 30 30 31 32 33 34 34 34 35 36 37 38 38 37 36 36 37 37 38 39 39 40 41 42 43 43 44 45 46 48 49 49 50 50 51 51 51 51 52 52 52 52 52 53 53 54 54 55 55 56 57 57 58 59 59 59 58 57 57 57 57 56 56 56 56 57 57 57 58 59 59 60 59 59 59 59 60 61 62 62 62 61 61 61 61
25 25 25 25 25 25 26 26 26 27 27 27 28 28 29 29 30 30 30 30 31 33 34 35 35 35 35 35 36 36 37 37 37 37 37 38 38 39 40 41 41 42 43 43 44 45 46 48 49 50 50 50 51 51 51 51 51 51 52 52 52 52 52 53 53 54 54 55 56 57 57 57 57 58 57 57 57 56 56 56 56 56 57 57 58 58 60 61 61 60 59 59 59 59 60 61 61 62 61 62 62 62 61
25 25 25 25 25 26 26 26 27 27 27 27 28 28 29 29 30 30 30 30 31 33 35 36 37 36 35 35 35 35 37 38 38 38 38 39 39 40 42 42 42 43 43 44 44 45 46 48 49 50 50 51 51 51 52 52 52 51 51 51 52 52 52 52 53 53 54 54 55 56 57 57 57 57 56 56 56 56 56 56 57 58 59 59 59 59 60 61 61 61 60 59 59 60 60 60 61 63 62 62 62 62 61
25 25 25 25 26 27 27 27 27 27 27 27 28 28 29 30 30 30 31 32 34 35 37 37 37 37 36 36 36 36 37 38 39 39 39 39 41 41 43 43 43 44 44 45 45 46 47 48 49 50 50 51 51 51 52 52 52 51 51 51 52 52 52 52 53 54 54 54 54 55 57 58 58 57 56 56 55 55 56 57 58 59 60 61 61 61 61 61 61 61 60 59 59 60 60 60 61 64 63 63 62 62 61
25 25 26 26 27 27 27 27 27 27 27 28 28 29 29 30 30 31 33 34 35 36 38 38 38 38 37 37 37 38 38 39 39 40 40 41 42 42 43 44 45 46 46 47 47 47 48 49 50 50 50 51 51 51 51 52 52 51 52 52 52 52 52 52 53 54 54 54 54 55 57 57 57 57 56 56 55 55 55 57 58 59 60 61 61 61 61 61 61 61 61 60 59 59 60 60 61 63 64 63 62 61 60
26 27 27 27 27 27 27 27 27 27 27 28 28 29 30 30 31 32 34 34 35 37 39 39 39 39 39 39 39 39 39 39 40 41 42 42 43 43 45 46 48 48 48 48 48 48 48 49 50 50 50 50 51 51 51 51 52 52 52 52 52 52 52 52 53 54 54 54 54 56 56 57 57 57 56 55 55 55 56 57 58 58 60 61 61 61 61 60 60 61 61 60 59 59 59 60 61 62 63 63 62 61 60
26 28 28 28 28 27 27 27 27 27 27 28 29 30 31 31 32 33 34 35 36 37 39 40 41 42 41 41 40 40 40 40 41 42 43 44 45 47 48 50 50 50 48 48 48 48 48 49 50 50 50 50 50 51 51 51 52 52 52 52 52 52 52 52 53 54 55 55 55 55 55 56 56 56 56 56 56 56 57 57 58 58 60 61 61 61 61 60 60 60 61 61 60 59 59 59 60 62 63 63 62 62 61
26 28 29 29 29 27 27 27 27 27 29 30 30 31 31 32 33 34 35 36 37 38 40 42 43 45 45 44 43 42 41 42 43 44 45 47 48 51 52 52 52 50 49 50 50 50 50 49 49 49 50 50 51 51 52 52 52 52 52 52 52 53 53 53 53 53 55 55 55 55 55 56 56 57 56 56 56 56 57 57 57 59 59 61 61 61 61 61 60 61 61 61 61 60 59 59 59 60 61 62 62 63 63
28 28 29 29 28 27 27 27 27 28 29 30 30 30 31 31 32 34 35 36 37 39 41 43 44 46 48 47 46 45 45 46 46 47 48 49 51 53 54 53 52 51 51 51 51 50 49 49 49 49 50 50 51 51 52 52 52 52 52 52 53 53 54 54 54 55 56 56 56 55 56 56 57 56 57 57 57 57 57 57 57 59 59 60 61 61 62 61 61 61 61 62 62 61 60 59 58 58 60 61 63 64 63
28 29 29 29 28 27 27 27 27 28 28 28 28 28 30 31 31 34 36 37 38 40 42 44 45 46 48 48 47 47 47 47 47 48 48 50 52 53 53 53 52 52 52 52 51 50 49 49 50 50 50 51 51 52 52 52 52 53 54 54 54 54 53 53 54 57 57 57 58 56 57 57 57 57 55 56 57 57 57 57 57 58 59 60 61 61 62 62 62 61 61 62 62 62 61 59 58 58 59 61 63 64 64
28 29 29 29 28 27 27 27 28 28 28 28 28 29 30 30 32 34 37 39 39 41 43 44 45 45 46 46 46 46 46 46 46 47 49 50 51 52 52 52 53 53 52 52 52 52 51 51 51 51 51 52 52 52 52 52 52 52 52 52 52 53 53 54 55 57 57 58 58 57 57 57 57 57 57 57 58 58 58 57 58 59 60 61 61 61 62 62 62 62 61 61 61 62 62 61 60 59 60 61 63 64 63
28 29 29 29 28 27 27 27 28 28 28 28 29 30 30 31 33 36 38 39 39 41 43 44 44 45 46 46 47 47 48 48 49 49 51 52 52 51 51 53 54 54 53 53 54 54 54 53 52 52 52 52 52 53 52 52 52 52 53 53 53 53 53 54 55 57 58 58 58 57 57 57 57 57 57 58 58 58 58 58 59 60 61 61 61 62 62 63 63 62 61 60 60 61 61 62 61 61 61 61 62 62 62
28 30 29 28 28 27 27 27 27 27 28 29 29 30 31 33 34 37 39 39 39 41 42 43 44 46 47 48 49 50 51 51 51 50 52 53 53 53 53 54 56 56 55 55 56 56 56 55 54 53 53 52 52 52 52 53 53 54 54 53 53 53 53 55 56 57 58 58 58 59 59 58 58 58 58 58 58 58 58 59 60 61 61 61 62 62 63 63 62 62 61 60 60 61 62 63 63 62 62 61 61 61 61
28 29 29 28 28 27 27 27 27 28 29 29 30 31 32 34 35 37 38 38 39 40 41 42 44 47 49 50 51 51 52 52 52 52 53 54 55 55 55 55 55 56 57 57 57 57 56 56 55 55 54 53 52 52 53 54 54 54 55 55 54 54 54 56 57 57 58 59 59 59 60 60 61 61 60 59 59 59 60 60 61 61 61 62 62 62 63 63 62 61 61 61 60 60 61 63 64 63 62 61 61 61 61
28 28 29 29 29 28 28 28 28 29 30 30 31 32 34 35 36 36 38 39 40 41 42 43 45 49 50 51 51 52 52 52 52 53 53 54 55 55 55 56 56 56 57 57 57 56 55 55 56 55 55 54 53 52 53 54 54 53 55 55 55 55 57 57 57 57 58 59 60 60 61 61 61 61 61 61 60 61 61 61 61 61 62 62 62 62 63 62 62 61 61 61 61 61 61 62 63 62 61 61 61 61 61
27 28 29 29 30 30 30 30 30 31 31 31 32 34 35 36 36 38 39 41 42 42 43 44 46 49 50 51 51 52 52 52 52 52 53 54 55 55 55 56 57 57 57 57 57 56 55 56 56 54 55 54 53 53 54 54 54 54 55 56 57 58 58 58 57 58 58 59 60 61 61 62 62 62 61 61 61 61 62 62 62 62 62 62 62 62 62 62 61 61 61 61 61 61 61 62 62 61 61 61 61 61 61
27 27 29 29 30 30 31 32 32 33 31 32 34 36 37 37 38 40 41 41 42 42 43 45 47 49 50 51 52 53 53 52 52 52 53 54 55 55 55 56 57 57 57 57 57 57 56 57 56 55 56 55 55 54 56 56 56 56 56 57 58 59 57 58 58 59 59 59 59 60 62 62 62 62 62 62 62 62 62 62 62 62 62 62 62 62 62 61 61 61 61 61 61 61 62 61 61 61 61 61 61 62 62
27 27 28 29 30 30 30 31 32 32 30 31 34 36 36 38 39 40 41 42 42 43 45 47 48 48 49 51 53 55 53 53 54 54 54 54 54 55 55 56 57 58 57 57 57 57 57 57 56 56 57 56 56 56 57 57 57 56 56 57 58 58 58 59 60 61 61 60 60 61 62 63 63 63 63 63 63 63 62 62 62 62 62 62 62 62 61 61 61 61 61 61 61 61 61 61 61 61 61 61 61 62 62
27 27 28 29 29 30 30 30 31 31 31 31 33 34 35 37 39 40 41 42 43 44 45 47 48 48 48 51 54 56 54 55 56 55 54 54 54 55 56 56 57 57 56 57 57 57 57 57 57 57 57 56 56 56 57 58 57 56 57 58 59 59 60 61 61 61 62 61 61 62 63 64 64 64 64 64 63 63 63 62 62 62 62 62 62 61 61 61 61 61 61 61 61 61 61 61 61 62 62 62 62 62 62
26 27 28 28 28 29 30 30 31 32 32 33 34 34 35 37 39 40 41 42 43 44 45 47 48 48 48 50 54 56 56 56 56 55 55 55 55 56 55 55 56 55 55 56 57 57 57 56 56 57 57 56 56 56 57 57 58 58 59 59 60 61 61 61 61 62 62 62 62 63 64 64 64 64 64 64 63 63 63 62 62 61 62 62 62 61 61 61 61 61 61 61 61 61 61 61 61 62 62 62 62 62 62
26 27 27 27 27 28 30 31 31 32 33 34 34 35 36 37 38 39 40 42 43 44 45 46 48 48 48 51 53 56 56 56 56 56 55 55 55 55 55 56 55 54 55 56 56 56 56 56 56 56 56 56 56 56 57 58 59 60 60 60 61 61 61 61 61 62 62 63 63 63 64 64 65 64 64 63 63 63 62 62 62 61 61 62 62 61 61 61 61 61 62 61 61 61 61 61 61 62 62 62 62 63 63
25 25 26 27 28 29 30 30 31 32 33 34 34 35 36 37 38 39 40 41 43 44 45 46 47 48 49 51 53 55 55 55 56 56 55 55 55 55 55 56 56 55 55 55 56 56 56 56 56 56 56 56 56 56 57 59 60 60 60 61 61 61 61 62 62 62 62 62 63 63 63 64 64 64 63 63 63 62 62 62 61 61 61 62 62 61 61 61 61 61 62 62 62 61 61 62 62 62 62 62 62 63 63
25 25 26 27 28 29 29 30 31 32 33 34 34 35 36 37 38 39 40 41 43 44 45 46 48 49 49 51 52 55 53 54 55 55 54 54 54 54 54 55 55 55 55 55 56 56 56 56 57 57 57 57 57 57 58 59 60 60 61 61 61 61 62 62 62 62 62 62 62 63 63 63 63 63 63 62 62 62 62 62 61 61 62 62 61 61 61 61 61 61 62 62 62 62 62 62 62 63 63 62 62 63 63
25 25 26 27 28 29 29 30 30 31 32 33 34 35 36 37 38 39 40 41 42 43 45 47 48 49 50 51 52 55 54 55 55 54 54 54 54 54 54 54 54 54 55 55 55 56 56 57 57 57 57 57 58 59 60 61 61 61 61 61 61 61 61 61 61 61 62 62 62 63 63 62 62 63 62 62 61 61 61 61 61 61 62 62 61 61 61 61 61 61 61 61 61 62 62 62 63 63 63 63 63 63 63
24 25 26 27 28 28 29 30 30 31 32 33 34 34 35 37 38 39 40 41 42 43 46 48 49 51 51 51 52 55 56 56 55 54 54 54 54 54 54 54 54 53 54 54 55 55 56 57 57 57 58 59 59 60 61 61 61 61 61 61 61 61 61 61 61 61 61 61 62 62 62 62 62 62 61 61 61 61 61 61 61 62 62 62 61 61 61 61 61 61 61 61 61 61 62 62 62 63 63 63 63 63 63
23 24 25 26 27 28 29 30 30 31 32 33 34 34 35 37 38 39 40 41 42 44 46 49 51 52 52 52 53 55 56 56 55 54 54 54 54 54 54 54 53 52 53 54 54 55 56 57 57 58 59 60 60 61 61 61 61 61 61 60 60 60 60 60 60 60 61 61 61 61 62 62 61 61 61 61 61 61 61 61 61 61 61 61 61 61 61 61 61 61 61 61 61 61 61 62 62 62 62 63 63 63 63
23 23 24 25 26 28 29 30 30 31 32 32 33 34 35 36 38 39 40 41 43 45 47 50 52 54 53 53 54 56 57 56 55 55 54 54 54 54 53 53 53 53 54 55 55 56 57 57 58 59 59 60 60 61 61 61 60 60 60 59 59 59 59 58 59 59 59 60 61 61 61 61 61 60 60 60 61 61 61 61 61 61 61 61 61 61 61 61 61 61 62 62 62 61 61 62 62 62 62 63 63 63 63
22 23 24 25 26 27 28 29 30 30 31 32 33 34 35 36 37 39 40 42 44 46 47 50 53 55 55 54 54 56 57 56 55 55 54 54 53 53 53 53 53 53 55 56 57 57 58 58 57 58 58 59 59 60 60 59 59 59 59 58 58 58 58 58 58 58 59 60 61 61 61 61 61 60 60 60 60 61 61 61 61 61 61 61 61 61 61 61 61 61 62 62 62 62 62 62 62 62 62 63 63 63 63
22 23 23 24 25 26 28 28 29 30 30 31 32 33 34 36 37 39 40 42 44 46 47 49 52 56 55 55 55 56 57 56 55 54 54 54 54 54 54 54 55 56 57 57 58 58 58 58 57 57 57 58 58 58 58 58 58 58 58 58 57 58 58 59 59 60 60 60 61 61 61 61 60 60 60 60 60 61 61 61 61 61 61 61 61 61 61 60 60 61 61 62 61 62 62 62 62 63 63 63 63 63 63
22 23 23 23 24 25 26 27 28 29 29 30 30 32 34 35 36 38 39 42 43 44 46 48 51 56 56 55 56 56 57 56 55 55 56 56 56 55 56 56 57 57 57 57 57 57 57 57 57 56 56 56 57 57 57 57 57 57 57 57 57 57 58 59 60 61 60 61 61 61 61 60 60 60 60 59 60 60 60 61 61 61 61 61 61 60 55 52 53 56 59 61 62 62 62 63 63 63 63 63 63 63 62
22 22 23 23 23 23 23 23 24 24 26 27 28 31 32 34 35 37 39 41 43 43 44 47 49 53 56 56 56 56 56 56 56 56 56 56 55 55 55 55 55 55 55 56 56 56 56 55 55 55 55 55 55 55 55 55 56 57 57 57 57 57 58 59 60 60 60 60 60 60 60 60 60 60 60 59 60 60 60 61 61 61 61 61 60 55 50 48 49 50 52 56 60 64 63 63 63 63 63 63 63 63 62
22 22 22 22 22 22 23 23 23 24 25 25 26 28 31 33 35 37 39 41 42 42 43 45 48 50 52 54 55 55 55 55 54 53 53 52 52 52 52 52 53 53 53 53 53 54 53 53 53 53 53 52 52 52 53 54 56 57 58 58 58 58 59 59 59 59 60 58 58 60 60 60 59 59 59 59 59 59 59 60 60 60 60 59 57 50 47 46 47 48 48 51 57 64 63 63 62 62 63 63 63 62 62
22 22 22 22 22 22 22 23 23 24 25 25 26 27 30 32 34 37 39 40 41 41 42 44 46 48 49 51 52 52 52 51 51 50 50 50 50 50 50 50 51 51 51 52 52 52 52 52 52 51 51 51 51 51 52 54 56 57 57 57 57 57 57 57 57 57 57 56 56 56 56 56 56 56 56 56 56 57 57 57 57 57 57 54 50 47 46 46 46 46 47 48 52 57 62 63 63 62 63 63 63 62 62
22 22 22 22 22 22 23 23 23 24 25 26 27 28 30 32 34 36 39 39 40 40 41 43 45 47 48 48 48 48 48 48 48 48 48 48 48 48 48 48 48 49 49 50 50 50 50 50 50 49 49 49 49 50 51 52 53 54 54 54 54 54 54 54 53 53 53 52 52 52 52 52 52 53 53 53 53 53 53 54 54 54 53 50 47 45 46 46 46 46 46 46 48 52 60 62 62 61 61 61 61 61 61
22 22 23 23 23 23 24 24 24 25 25 27 29 30 31 33 34 36 38 39 39 40 41 42 43 45 46 47 47 46 46 46 46 46 46 46 46 46 46 46 46 47 48 48 48 48 48 48 48 48 48 48 48 48 50 51 51 51 51 51 51 51 51 51 51 51 51 51 50 50 51 51 51 51 51 51 51 50 50 50 50 50 51 49 46 43 44 44 45 45 45 45 46 48 54 57 58 57 57 56 56 57 58
22 23 23 24 24 24 25 25 25 25 26 28 30 30 32 33 34 36 38 39 39 39 40 41 43 43 44 45 45 44 44 44 44 44 44 44 44 44 44 44 45 45 46 46 46 47 47 46 46 46 46 47 47 47 48 48 48 48 48 49 49 49 49 48 48 48 48 48 48 49 49 49 49 49 49 48 48 47 46 46 46 47 47 45 43 42 43 43 43 43 43 44 44 45 51 53 54 54 53 52 52 52 53
23 23 23 24 24 24 25 25 26 26 27 29 30 31 32 33 34 36 38 39 39 39 40 41 41 42 42 42 43 43 43 43 43 43 43 43 43 43 43 43 43 43 44 44 45 45 45 45 45 45 45 45 45 45 46 47 47 47 48 48 48 48 48 48 47 47 47 47 47 47 48 48 48 48 47 47 46 45 45 44 43 43 43 42 42 41 42 42 42 42 42 43 43 43 47 50 51 50 49 48 48 48 48
23 23 24 24 24 24 25 25 26 27 28 29 30 30 31 33 34 35 37 38 39 39 39 39 40 40 40 40 40 41 41 41 41 42 42 42 42 42 43 43 43 43 43 43 43 43 43 43 43 43 44 44 43 43 44 44 45 45 46 46 46 46 46 45 45 45 45 45 45 45 46 46 46 46 45 45 44 44 43 43 42 41 41 40 40 40 41 41 41 41 41 41 42 42 46 48 48 47 46 46 45 45 45
23 24 24 24 24 24 25 25 26 27 28 29 30 30 31 32 33 35 37 37 38 38 38 38 39 39 39 39 39 39 39 39 39 40 40 40 41 41 41 42 42 42 42 42 42 42 42 43 43 43 43 43 43 43 42 43 43 43 43 43 43 43 43 44 44 43 44 44 44 44 44 44 44 44 44 44 44 43 43 42 41 41 40 39 39 39 39 40 40 40 40 41 41 42 45 46 46 44 44 43 43 43 42